Regional Weather Roundup
Issued by NWS

Home | Current Version | Previous Version | Graphics & Text | Print | Product List | Glossary On
Versions: 1 2 3 4 5 6 7 8 9 10 11 12 13 14 15 16 17 18 19 20 21 22 23 24 25 26 27 28 29 30 31 32 33 34 35 36 37 38 39 40 41 42 43 44 45 46 47 48 49 50
412
ASUS43 KMPX 021810
RWRMN
WEATHER ROUNDUP FOR MINNESOTA
NATIONAL WEATHER SERVICE TWIN CITIES/CHANHASSEN MN
1200 PM CST FRI DEC 02 2016


NOTE: "FAIR" INDICATES FEW OR NO CLOUDS BELOW 12,000 FEET WITH NO
SIGNIFICANT WEATHER AND/OR OBSTRUCTIONS TO VISIBILITY. N/A MEANS
CURRENT SKY AND/OR WEATHER CONDITIONS ARE NOT AVAILABLE.

MNZ060>063-068>070-021900-
   Twin Cities Metro

CITY           SKY/WX    TMP DP  RH WIND       PRES   REMARKS
TWIN CITIES    CLOUDY    33  23  66 W8        30.23S WCI  26
6HR MIN TEMP:  31; 6HR MAX TEMP:  33;

ST PAUL        CLOUDY    33  25  72 NW10      30.24S WCI  25
CRYSTAL        CLOUDY    32  22  66 NW10      30.22S WCI  24
BLAINE         CLOUDY    34  27  75 NW8       30.22S WCI  27
LAKEVILLE      CLOUDY    30  25  80 W7        30.23S WCI  23
EDEN PRAIRIE   CLOUDY    33  23  66 NW8       30.22S WCI  26
6HR MIN TEMP:  32; 6HR MAX TEMP:  33;

SOUTH ST PAUL  CLOUDY    33  24  68 W7        30.23S WCI  27
LAKE ELMO      CLOUDY    32  27  80 NW8       30.23S WCI  25
$$
MNZ001>005-007-008-013>017-022>024-027-028-021900-
   Northwest Minnesota

CITY           SKY/WX    TMP DP  RH WIND       PRES   REMARKS
BEMIDJI        CLOUDY    24  20  86 W7        30.21S WCI  16
HALLOCK        CLOUDY    28  25  86 NW6       30.25S WCI  22
ROSEAU         PTSUNNY   27  21  80 W5        30.23S WCI  21
WARROAD        CLOUDY    25  21  86 NW6       30.22F WCI  18
THIEF RVR FALL CLOUDY    27  22  81 N9        30.24S WCI  18
CROOKSTON      CLOUDY    28  23  80 N12       30.26S WCI  18
FOSSTON        CLOUDY    23  18  80 NW7       30.24S WCI  15
DETROIT LAKES  CLOUDY    27  23  86 NW7       30.24S WCI  19
MOORHEAD       CLOUDY    28  21  74 N6        30.28R WCI  22
PARK RAPIDS    CLOUDY    25  18  74 NW6       30.21S WCI  18
$$
MNZ006-009>011-018-025>026-021900-
   North Central Minnesota

CITY           SKY/WX    TMP DP  RH WIND       PRES   REMARKS
BAUDETTE       CLOUDY    24  21  88 NW6       30.21S WCI  17
FLAG ISLAND    CLOUDY    21  18  86 NW6       30.21S WCI  14
INTL FALLS     CLOUDY    26  22  84 W7        30.19S WCI  18
6HR MIN TEMP:  25; 6HR MAX TEMP:  26;

WASKISH        CLOUDY    23  21  93 W5        30.22S WCI  17
BIG FORK       CLOUDY    25  21  86 CALM      30.20S
LONGVILLE      CLOUDY    25  21  86 NW6       30.21S WCI  18
GRAND RAPIDS   CLOUDY    26  23  88 NW7       30.21S WCI  18
CRANE LAKE     CLOUDY    25  21  86 CALM      30.21S
ORR            CLOUDY    25  21  86 CALM      30.16S
COOK           CLOUDY    27  23  86 CALM      30.18S
$$
MNZ012-019>021-037-021900-
   Northeast Minnesota

CITY           SKY/WX    TMP DP  RH WIND       PRES   REMARKS
DULUTH         CLOUDY    27  22  81 NW9       30.16S WCI  18
6HR MIN TEMP:  26; 6HR MAX TEMP:  28;

ELY            CLOUDY    23  21  93 NW3       30.16S
HIBBING        CLOUDY    26  21  81 N7        30.17F WCI  18
EVELETH        CLOUDY    26  22  83 N7        30.18S WCI  19
DULUTH HARBOR  CLOUDY    30  25  80 W12       30.22R WCI  21
TWO HARBORS    CLOUDY    30  25  80 NW6       30.15S WCI  24
SILVER BAY     CLOUDY    32  25  74 NW6       30.14S WCI  26
GRAND MARAIS     N/A     33  24  69 CALM      30.15R
G MARAIS ARPRT CLOUDY    25  19  80 NW8       30.10R WCI  16
$$
MNZ029>031-032-039>041-046>048-054>057-064-021900-
   West Central Minnesota

CITY           SKY/WX    TMP DP  RH WIND       PRES   REMARKS
FERGUS FALLS   CLOUDY    27  19  74 N6        30.30S WCI  20
MORRIS         CLOUDY    28  21  74 NW7       30.25S WCI  21
ALEXANDRIA     CLOUDY    26  22  84 NW6       30.24R WCI  19
ELBOW LAKE     CLOUDY    26  21  80 CALM      30.26S
WADENA         CLOUDY    25  19  80 CALM      30.22S
GLENWOOD       CLOUDY    27  21  80 W7        30.24S WCI  19
APPLETON       CLOUDY    30  21  69 NW7       30.27S WCI  23
BENSON         CLOUDY    28  21  74 N8        30.26S WCI  20
ORTONVILLE     CLOUDY    28  21  74 CALM      30.27S
MADISON        CLOUDY    30  25  80 NW8       30.27S WCI  23
WILLMAR        CLOUDY    28  21  74 NW10      30.26F WCI  19
$$
MNZ033>034-036-042>043-049>051-058-059-021900-
   Central Minnesota

CITY           SKY/WX    TMP DP  RH WIND       PRES   REMARKS
ST CLOUD       CLOUDY    30  23  75 N7        30.23S WCI  23
6HR MIN TEMP:  29; 6HR MAX TEMP:  30;

PAYNESVILLE    CLOUDY    30  24  79 NW7       30.24S WCI  23
AITKIN         CLOUDY    28  21  74 W5        30.20S WCI  23
PINE RIVER     CLOUDY    25  21  86 NW6       30.24F WCI  18
BRAINERD       CLOUDY    26  21  81 NW7       30.22S WCI  18
STAPLES        CLOUDY    25  21  86 W5        30.22S WCI  19
LONG PRAIRIE   CLOUDY    27  21  80 W7        30.23S WCI  19
LITTLE FALLS   CLOUDY    28  21  74 W7        30.23S WCI  21
LITCHFIELD     CLOUDY    30  25  80 W7        30.24S WCI  23
BUFFALO        CLOUDY    31  24  74 W5        30.24S WCI  27
MAPLE LAKE     CLOUDY    32  26  80 NW7       30.24S WCI  26
$$
MNZ037-044-045-052-053-021900-
   East Central Minnesota

CITY           SKY/WX    TMP DP  RH WIND       PRES   REMARKS
PRINCETON      CLOUDY    30  25  80 NW8       30.23S WCI  23
MORA           CLOUDY    30  23  74 NW7       30.23S WCI  23
CAMBRIDGE      CLOUDY    32  21  64 NW5       30.21S WCI  27
RUSH CITY      CLOUDY    30  23  74 N3        30.22S
MOOSE LAKE     CLOUDY    30  23  74 NW7       30.18F WCI  23
HINCKLEY       CLOUDY    30  25  80 NW5       30.21F WCI  25
CLOQUET        CLOUDY    27  21  80 NW7       30.18S WCI  19
MCGREGOR       CLOUDY    30  25  80 NW6       30.20S WCI  24
$$
MNZ071>073-080-081-089-090-097-098-021900-
   Southwest Minnesota

CITY           SKY/WX    TMP DP  RH WIND       PRES   REMARKS
MONTEVIDEO     CLOUDY    28  27  93 N9        30.29R WCI  20
GRANITE FALLS  CLOUDY    31  23  74 W8        30.29R WCI  23
CANBY          CLOUDY    30  24  77 CALM      30.28S
MARSHALL       CLOUDY    29  23  78 N9        30.27S WCI  20
REDWOOD FALLS  CLOUDY    30  21  69 NW6       30.27R WCI  24
OLIVIA         CLOUDY    30  23  74 NW8       30.26R WCI  23
PIPESTONE      CLOUDY    30  25  80 N8        30.23S WCI  23
WINDOM         MIX PCPN  28  27  93 CALM      30.25S
WORTHINGTON    CLOUDY    30  23  75 NW13      30.25S WCI  20
JACKSON        CLOUDY    30  23  74 NW13      30.25S WCI  20
TRACY          CLOUDY    30  26  83 NW7       30.26S WCI  23
SLAYTON        CLOUDY    28  22  78 NW9       30.25S WCI  20
$$
MNZ065>067-074>077-082>085-091>093-021900-
   South Central Minnesota

CITY           SKY/WX    TMP DP  RH WIND       PRES   REMARKS
MANKATO        CLOUDY    30  23  75 NW10      30.25R WCI  21
NEW ULM        CLOUDY    28  21  74 W13       30.26S WCI  18
ST JAMES       CLOUDY    30  25  80 NW12      30.27R WCI  21
FAIRMONT       CLOUDY    31  25  78 NW10      30.25S WCI  22
GLENCOE        CLOUDY    31  26  80 NW6       30.24S WCI  25
FARIBAULT      CLOUDY    30  25  80 W5        30.24R WCI  25
OWATONNA       CLOUDY    30  21  69 NW7       30.23S WCI  23
WASECA         CLOUDY    32  27  80 NW8       30.25R WCI  25
ALBERT LEA     CLOUDY    34  27  75 NW5       30.23S WCI  30
$$
MNZ078>079-086>088-094>096-021900-
   Southeast Minnesota

CITY           SKY/WX    TMP DP  RH WIND       PRES   REMARKS
ROCHESTER      CLOUDY    30  23  75 NW12      30.21S WCI  20
6HR MIN TEMP:  30; 6HR MAX TEMP:  31;

RED WING       CLOUDY    34  21  60 W7        30.22S WCI  28
STANTON        CLOUDY    33  23  68 W6        30.23R WCI  27
DODGE CENTER   CLOUDY    28  21  74 W5        30.22S WCI  23
WINONA         CLOUDY    34  27  75 N9        30.24R WCI  26
AUSTIN         CLOUDY    30  21  69 NW6       30.22S WCI  24
PRESTON        CLOUDY    30  23  75 NW9       30.21S WCI  21
$$
ABBREVIATIONS USED IN REMARKS
   TC - TEMPERATURES IN CELSIUS
  WCI - WIND CHILL INDEX
   HX - HEAT INDEX
  VSB - VISIBILITY
$$




USA.gov is the U.S. government's official web portal to all federal, state and local government web resources and services.